STARLINK-32791, 62530

Orbit data source: Space-Track

STARLINK-32791, 62530 is a payload satellite owned by SpaceX/Seattle (US) in LEO that was launched on Wed, 08 Jan 2025 UTC via an FALCON 9 launch vehicle from the Air Force Eastern Test Range (AFETR). Payload-class satellites include a variety of spacecraft equipped with specific instruments for various scientific and technological missions. These include communications satellites like Starlink; space stations such as the ISS; scientific satellites like the Hubble; Earth observation satellites from companies like Planet Labs, Umbra, and HawkEye 360; GPS; miniature CubeSats for education and research; and military/defense satellites.

Loading next visibility...
Identifier
62530, 2025-004V
Orbit
LEO
Country
Flag of USUS
Related business
Manufacturer
SpaceX/Seattle
Mission
Operational Commercial Communications
Bus & Motor
STARLINK V2M, Unknown motor
Mass
730 kg wet, ~700 kg dry
Launch date (UTC)
2025-01-08 (1 year ago)
Launch vehicle
FALCON 9
Launch site
Air Force Eastern Test Range (AFETR)
Object type
Payload
Rocket body
Debris
Shape & HBR
Box + 2 Pan, 17.7 m
Radar Cross Section
33.884 m², Large (>1 m²)

Expand to show TLE details & history
Last TLE update: 12 hours ago

TLE from 12 hours ago
0 STARLINK-32791
1 62530U 25004V   26095.26371003  .00025293  00000-0  92510-3 0  9992
2 62530  43.0037  69.7140 0001534 276.9346  83.1331 15.27594388 70527
Epoch: 2026-04-05T06:19Z
TLE epoch observation values (Epoch: 2026-04-05T06:19:44.546Z)
Latitude
-0.00003°
Longitude
141.20672°
Altitude
482.656 km
Speed
7.626 km/s
True Right ascension
04h 38m 51s
True Declination
0° 00' 00"
Sunlit
Object was in daylight at epoch
Visualization orbit readout
Latitude
Unknown
Longitude
Unknown
Altitude
Unknown
Speed
Unknown
Apparent Right ascension
Unknown
Apparent Declination
Unknown
Sunlit
N/A
Visualization observer readout
Local Sidereal Time
23:52:16
Azimuth
Unknown
Elevation
Unknown
Doppler factor
Unknown
Orbital elements
Apogee altitude
486.003 km
Perigee altitude
483.898 km
Semi-major axis
6,863.088 km
Eccentricity
0.00015
Inclination
43.0037°
RAAN
69.714°
Arg. of periapsis
276.9346°
True anomaly
83.15055°
Mean anomaly
83.1331°
Eccentric anomaly
83.14183°
Mean motion
3.81737 °/min
Orbital period
94.31 mins
BSTAR
0.0009251
Loading maneuver chart data...
Computing Atmospheric mass density...
Loading historical data...
Loading historical data...
Loading historical data...
Loading historical data...
Loading historical data...
Loading historical data...
Loading historical data...

Documentation

Showing up to 5 results
|